Cosmos 2251 Rocket - Orbit

View from above orbital plane
View from above orbital plane
View from above satellite
View from above satellite

Ground track
Ground track

The orbit data is extracted from the following two-line orbital elements,

1 22676U 93036B   13145.19942768  .00000125  00000-0  54456-4 0  9484
2 22676 074.0441 015.0046 0018491 042.9206 317.3384 14.33428064 42670
Epoch (UTC): 25 May 2013 04:47:10
Eccentricity: 0.0018491
inclination: 74.0441°
perigee height: 767 km
apogee height: 793 km
right ascension of ascending node: 15.0046°
argument of perigee: 42.9206°
revolutions per day: 14.33428064
mean anomaly at epoch: 317.3384°
orbit number at epoch: 4267

The dashed part of the orbit path shows where the satellite is in the earth's shadow,  

Developed and maintained by Chris Peat, Heavens-Above GmbH. Please read the updated FAQ before sending e-mail. Imprint. DLR